DLH249 LIMC-EDDF

Flight info

Callsign DLH249
Flight time 0h 50m
Altitude 32000
Route SRN6LXPEPAG2Q/35R PEPAG DCT ABESI N851 UTAVO DCT ROLSA DCT LADOL T163 EMPAX EMPAX5B
Aircraft A321/M-SDE3FGHIRWY/LB1

Departure

Time 2026-05-05 20:22
Airport Milan Malpensa International Airport (LIMC)

Arrival

Time 2026-05-05 21:13
Airport Frankfurt Main Airport (EDDF)
Time Latitude Longitude Altitude Speed Heading
2026-05-05 19:19 45.62507 8.71760 740 ft 0 kts 259°
2026-05-05 20:00 45.62512 8.71790 739 ft 4 kts 249°
2026-05-05 20:00 45.62524 8.71823 739 ft 4 kts 230°
2026-05-05 20:00 45.62544 8.71848 738 ft 4 kts 204°
2026-05-05 20:00 45.62568 8.71855 738 ft 2 kts 172°
2026-05-05 20:01 45.62569 8.71855 738 ft 0 kts 171°
2026-05-05 20:04 45.62559 8.71857 739 ft 2 kts 171°
2026-05-05 20:05 45.62536 8.71863 740 ft 4 kts 171°
2026-05-05 20:05 45.62500 8.71872 741 ft 6 kts 169°
2026-05-05 20:05 45.62452 8.71885 739 ft 8 kts 169°
2026-05-05 20:05 45.62392 8.71902 741 ft 10 kts 169°
2026-05-05 20:06 45.62342 8.71961 741 ft 10 kts 95°
2026-05-05 20:06 45.62356 8.72052 741 ft 7 kts 78°
2026-05-05 20:06 45.62367 8.72128 741 ft 0 kts 79°
2026-05-05 20:08 45.62367 8.72133 741 ft 2 kts 79°
2026-05-05 20:08 45.62364 8.72148 741 ft 1 kts 137°
2026-05-05 20:08 45.62354 8.72145 741 ft 3 kts 191°
2026-05-05 20:09 45.62318 8.72134 741 ft 8 kts 190°
2026-05-05 20:09 45.62259 8.72139 740 ft 10 kts 169°
2026-05-05 20:09 45.62184 8.72160 741 ft 12 kts 169°
2026-05-05 20:09 45.62098 8.72184 741 ft 13 kts 169°
2026-05-05 20:10 45.62003 8.72210 741 ft 15 kts 169°
2026-05-05 20:10 45.61895 8.72240 742 ft 16 kts 169°
2026-05-05 20:10 45.61778 8.72272 741 ft 18 kts 169°
2026-05-05 20:10 45.61652 8.72307 742 ft 19 kts 169°
2026-05-05 20:11 45.61518 8.72344 742 ft 20 kts 169°
2026-05-05 20:11 45.61408 8.72348 740 ft 14 kts 215°
2026-05-05 20:11 45.61373 8.72217 740 ft 14 kts 242°
2026-05-05 20:11 45.61288 8.72207 742 ft 13 kts 168°
2026-05-05 20:12 45.61204 8.72231 742 ft 12 kts 169°
2026-05-05 20:12 45.61127 8.72251 740 ft 11 kts 169°
2026-05-05 20:12 45.61061 8.72270 742 ft 9 kts 169°
2026-05-05 20:12 45.61001 8.72286 742 ft 9 kts 169°
2026-05-05 20:13 45.60933 8.72305 740 ft 10 kts 168°
2026-05-05 20:13 45.60867 8.72324 742 ft 10 kts 169°
2026-05-05 20:13 45.60788 8.72346 742 ft 15 kts 169°
2026-05-05 20:13 45.60676 8.72390 742 ft 17 kts 145°
2026-05-05 20:14 45.60636 8.72531 742 ft 15 kts 97°
2026-05-05 20:14 45.60625 8.72671 742 ft 13 kts 96°
2026-05-05 20:14 45.60616 8.72798 742 ft 12 kts 95°
2026-05-05 20:14 45.60605 8.72941 742 ft 16 kts 96°
2026-05-05 20:15 45.60593 8.73099 742 ft 16 kts 96°
2026-05-05 20:15 45.60615 8.73243 742 ft 15 kts 50°
2026-05-05 20:15 45.60703 8.73308 742 ft 14 kts 22°
2026-05-05 20:15 45.60791 8.73360 742 ft 14 kts 22°
2026-05-05 20:16 45.60886 8.73403 742 ft 15 kts
2026-05-05 20:16 45.60981 8.73383 742 ft 13 kts 349°
2026-05-05 20:16 45.61073 8.73358 742 ft 14 kts 349°
2026-05-05 20:16 45.61168 8.73332 742 ft 13 kts 349°
2026-05-05 20:17 45.61259 8.73306 742 ft 11 kts 349°
2026-05-05 20:17 45.61264 8.73305 742 ft 0 kts 349°
2026-05-05 20:18 45.61267 8.73304 742 ft 3 kts 349°
2026-05-05 20:18 45.61328 8.73287 742 ft 11 kts 349°
2026-05-05 20:18 45.61402 8.73267 742 ft 12 kts 349°
2026-05-05 20:18 45.61492 8.73242 742 ft 13 kts 349°
2026-05-05 20:19 45.61584 8.73221 742 ft 13 kts
2026-05-05 20:19 45.61622 8.73316 741 ft 11 kts 79°
2026-05-05 20:19 45.61631 8.73416 741 ft 10 kts 94°
2026-05-05 20:19 45.61605 8.73493 741 ft 0 kts 123°
2026-05-05 20:20 45.61588 8.73547 741 ft 14 kts 105°
2026-05-05 20:20 45.61599 8.73697 739 ft 15 kts 61°
2026-05-05 20:20 45.61675 8.73719 739 ft 0 kts 351°
2026-05-05 20:21 45.61790 8.73688 740 ft 51 kts 349°
2026-05-05 20:21 45.62391 8.73523 743 ft 122 kts 349°
2026-05-05 20:22 45.63408 8.73245 847 ft 166 kts 349°
2026-05-05 20:22 45.64509 8.72947 1629 ft 163 kts 351°
2026-05-05 20:22 45.65635 8.72660 2283 ft 169 kts 353°
2026-05-05 20:22 45.66878 8.72602 2589 ft 190 kts
2026-05-05 20:23 45.68285 8.72610 2882 ft 215 kts
2026-05-05 20:23 45.69842 8.72615 3460 ft 229 kts
2026-05-05 20:23 45.71454 8.72693 4283 ft 235 kts 14°
2026-05-05 20:23 45.72926 8.73721 4887 ft 248 kts 45°
2026-05-05 20:24 45.73952 8.75769 5024 ft 265 kts 74°
2026-05-05 20:24 45.74360 8.78401 5053 ft 268 kts 81°
2026-05-05 20:24 45.74696 8.80944 5054 ft 261 kts 81°
2026-05-05 20:24 45.75031 8.83497 5189 ft 264 kts 81°
2026-05-05 20:25 45.75366 8.86083 6063 ft 264 kts 82°
2026-05-05 20:25 45.75703 8.88672 6870 ft 266 kts 82°
2026-05-05 20:25 45.76044 8.91305 7572 ft 272 kts 82°
2026-05-05 20:25 45.76394 8.94002 8245 ft 279 kts 82°
2026-05-05 20:26 45.76754 8.96760 8931 ft 285 kts 82°
2026-05-05 20:26 45.77122 8.99580 9611 ft 291 kts 82°
2026-05-05 20:26 45.77498 9.02469 10003 ft 297 kts 82°
2026-05-05 20:26 45.77886 9.05467 10256 ft 317 kts 82°
2026-05-05 20:27 45.78302 9.08688 10396 ft 340 kts 82°
2026-05-05 20:27 45.78743 9.12095 10765 ft 353 kts 82°
2026-05-05 20:27 45.79433 9.15453 11333 ft 361 kts 66°
2026-05-05 20:27 45.80857 9.18444 11969 ft 368 kts 47°
2026-05-05 20:28 45.82895 9.20674 12626 ft 372 kts 27°
2026-05-05 20:28 45.85338 9.21909 13165 ft 375 kts
2026-05-05 20:28 45.87931 9.21916 13800 ft 374 kts 348°
2026-05-05 20:28 45.90394 9.20774 14351 ft 373 kts 333°
2026-05-05 20:29 45.92768 9.19241 14971 ft 376 kts 333°
2026-05-05 20:29 45.95164 9.17691 15481 ft 379 kts 333°
2026-05-05 20:29 45.97577 9.16131 16049 ft 382 kts 333°
2026-05-05 20:29 45.99979 9.14583 16635 ft 385 kts 333°
2026-05-05 20:30 46.02441 9.12998 17189 ft 389 kts 333°
2026-05-05 20:30 46.04924 9.11400 17713 ft 393 kts 333°
2026-05-05 20:30 46.07431 9.09790 18267 ft 396 kts 333°
2026-05-05 20:30 46.09959 9.08167 18743 ft 400 kts 333°
2026-05-05 20:31 46.12507 9.06523 19235 ft 403 kts 333°
2026-05-05 20:31 46.15115 9.04982 19714 ft 409 kts 339°
2026-05-05 20:31 46.17907 9.04035 20216 ft 415 kts 349°
2026-05-05 20:31 46.20798 9.03618 20665 ft 419 kts 353°
2026-05-05 20:32 46.23719 9.03238 21108 ft 423 kts 353°
2026-05-05 20:32 46.26619 9.02855 21547 ft 426 kts 353°
2026-05-05 20:32 46.29588 9.02461 22025 ft 430 kts 353°
2026-05-05 20:32 46.32579 9.02062 22452 ft 433 kts 352°
2026-05-05 20:33 46.35585 9.01657 22887 ft 436 kts 353°
2026-05-05 20:33 46.38615 9.01249 23202 ft 439 kts 352°
2026-05-05 20:33 46.41671 9.00837 23584 ft 442 kts 352°
2026-05-05 20:33 46.44743 9.00422 23965 ft 445 kts 352°
2026-05-05 20:34 46.47832 9.00003 24318 ft 447 kts 352°
2026-05-05 20:34 46.50931 8.99584 24699 ft 449 kts 352°
2026-05-05 20:34 46.54009 8.99168 25078 ft 451 kts 353°
2026-05-05 20:34 46.57144 8.98745 25441 ft 453 kts 353°
2026-05-05 20:35 46.60292 8.98317 25791 ft 456 kts 352°
2026-05-05 20:35 46.63456 8.97886 26128 ft 458 kts 353°
2026-05-05 20:35 46.66633 8.97451 26462 ft 460 kts 353°
2026-05-05 20:35 46.69834 8.97018 26806 ft 463 kts 353°
2026-05-05 20:36 46.73046 8.96587 27119 ft 465 kts 353°
2026-05-05 20:36 46.76273 8.96155 27523 ft 467 kts 353°
2026-05-05 20:36 46.79514 8.95717 27861 ft 469 kts 354°
2026-05-05 20:36 46.82728 8.95279 28181 ft 471 kts 353°
2026-05-05 20:37 46.86007 8.94831 28458 ft 475 kts 354°
2026-05-05 20:37 46.88236 8.94528 28655 ft 478 kts 354°
2026-05-05 20:37 46.92636 8.93927 29062 ft 481 kts 354°
2026-05-05 20:37 46.95980 8.93470 29354 ft 484 kts 354°
2026-05-05 20:38 46.99341 8.93011 29679 ft 486 kts 354°
2026-05-05 20:38 47.02717 8.92549 29997 ft 489 kts 354°
2026-05-05 20:38 47.06114 8.92082 30224 ft 491 kts 354°
2026-05-05 20:38 47.09520 8.91611 30451 ft 493 kts 354°
2026-05-05 20:39 47.12937 8.91135 30701 ft 494 kts 354°
2026-05-05 20:39 47.16318 8.90665 30976 ft 494 kts 354°
2026-05-05 20:39 47.19738 8.90199 31315 ft 493 kts 354°
2026-05-05 20:39 47.23145 8.89734 31652 ft 491 kts 354°
2026-05-05 20:40 47.26540 8.89267 31981 ft 490 kts 354°
2026-05-05 20:40 47.29941 8.89006 32311 ft 490 kts
2026-05-05 20:40 47.33345 8.89220 32630 ft 489 kts
2026-05-05 20:40 47.36735 8.89464 32861 ft 488 kts
2026-05-05 20:41 47.40101 8.89710 32902 ft 479 kts
2026-05-05 20:41 47.46661 8.90195 32899 ft 474 kts
2026-05-05 20:42 47.53249 8.90673 32897 ft 474 kts
2026-05-05 20:42 47.59832 8.91143 32896 ft 474 kts
2026-05-05 20:43 47.66415 8.91615 32893 ft 474 kts
2026-05-05 20:43 47.73002 8.92101 32884 ft 474 kts
2026-05-05 20:44 47.79595 8.92589 32879 ft 475 kts
2026-05-05 20:44 47.86154 8.93067 32883 ft 475 kts
2026-05-05 20:45 47.96061 8.93807 32888 ft 476 kts
2026-05-05 20:45 48.02675 8.94299 32905 ft 476 kts
2026-05-05 20:46 48.09289 8.94780 32890 ft 476 kts
2026-05-05 20:46 48.15917 8.95226 32866 ft 487 kts
2026-05-05 20:47 48.22718 8.96062 32866 ft 493 kts
2026-05-05 20:47 48.29539 8.97189 32870 ft 493 kts
2026-05-05 20:48 48.36363 8.98363 32862 ft 494 kts
2026-05-05 20:48 48.39722 8.98919 32069 ft 488 kts
2026-05-05 20:48 48.43107 8.99436 30522 ft 488 kts
2026-05-05 20:49 48.46470 8.99917 29212 ft 481 kts
2026-05-05 20:49 48.49735 9.00378 28596 ft 459 kts
2026-05-05 20:49 48.52881 9.00832 28192 ft 451 kts
2026-05-05 20:49 48.55980 9.01292 27695 ft 445 kts
2026-05-05 20:50 48.59042 9.01758 27217 ft 439 kts
2026-05-05 20:50 48.61047 9.02069 26904 ft 436 kts
2026-05-05 20:50 48.65047 9.02751 26287 ft 429 kts
2026-05-05 20:50 48.67981 9.03397 25837 ft 424 kts
2026-05-05 20:51 48.70835 9.04108 25407 ft 419 kts 10°
2026-05-05 20:51 48.73692 9.04854 24979 ft 414 kts 10°
2026-05-05 20:51 48.76518 9.05586 24566 ft 411 kts 10°
2026-05-05 20:51 48.79335 9.06295 24153 ft 409 kts 10°
2026-05-05 20:52 48.82139 9.06981 23739 ft 407 kts
2026-05-05 20:52 48.84935 9.07653 23309 ft 406 kts
2026-05-05 20:52 48.87717 9.08316 22865 ft 403 kts
2026-05-05 20:52 48.90483 9.08894 22449 ft 399 kts
2026-05-05 20:53 48.93183 9.09324 22045 ft 392 kts
2026-05-05 20:53 48.95882 9.09674 21627 ft 386 kts
2026-05-05 20:53 48.98542 9.09991 21201 ft 381 kts
2026-05-05 20:53 49.01166 9.10308 20782 ft 376 kts
2026-05-05 20:54 49.03782 9.10643 20308 ft 383 kts
2026-05-05 20:54 49.06458 9.11005 19824 ft 388 kts
2026-05-05 20:54 49.09141 9.11385 19340 ft 387 kts
2026-05-05 20:54 49.11809 9.11773 18861 ft 384 kts
2026-05-05 20:55 49.14466 9.12161 18382 ft 382 kts
2026-05-05 20:55 49.17102 9.12542 17867 ft 380 kts
2026-05-05 20:55 49.19723 9.12922 17392 ft 376 kts
2026-05-05 20:55 49.22320 9.13298 16921 ft 373 kts
2026-05-05 20:56 49.24893 9.13668 16464 ft 370 kts
2026-05-05 20:56 49.27413 9.14029 16012 ft 367 kts
2026-05-05 20:56 49.29915 9.14699 15531 ft 364 kts 13°
2026-05-05 20:56 49.32373 9.15565 15031 ft 361 kts 13°
2026-05-05 20:57 49.34811 9.16427 14534 ft 358 kts 13°
2026-05-05 20:57 49.37232 9.17284 14043 ft 355 kts 13°
2026-05-05 20:57 49.39633 9.18138 13543 ft 353 kts 13°
2026-05-05 20:57 49.42011 9.18988 13035 ft 349 kts 13°
2026-05-05 20:58 49.44360 9.19825 12559 ft 345 kts 13°
2026-05-05 20:58 49.46684 9.20651 12088 ft 341 kts 13°
2026-05-05 20:58 49.48982 9.21469 11624 ft 338 kts 13°
2026-05-05 20:58 49.51235 9.22271 11166 ft 335 kts 13°
2026-05-05 20:59 49.53491 9.23075 10885 ft 331 kts 13°
2026-05-05 20:59 49.55736 9.23874 10844 ft 332 kts 13°
2026-05-05 20:59 49.57990 9.24677 10851 ft 332 kts 13°
2026-05-05 20:59 49.60244 9.25481 10851 ft 333 kts 13°
2026-05-05 21:00 49.62501 9.26288 10854 ft 333 kts 13°
2026-05-05 21:00 49.64753 9.27098 10852 ft 331 kts 13°
2026-05-05 21:00 49.66940 9.27846 10849 ft 313 kts
2026-05-05 21:00 49.69156 9.27802 10674 ft 326 kts 347°
2026-05-05 21:01 49.71257 9.26530 10224 ft 325 kts 328°
2026-05-05 21:01 49.73150 9.24715 9747 ft 323 kts 327°
2026-05-05 21:01 49.75076 9.22849 9215 ft 322 kts 327°
2026-05-05 21:01 49.76941 9.21045 8701 ft 320 kts 327°
2026-05-05 21:02 49.78916 9.19505 8180 ft 319 kts 343°
2026-05-05 21:02 49.81106 9.19226 7679 ft 317 kts
2026-05-05 21:02 49.83182 9.20206 7225 ft 305 kts 22°
2026-05-05 21:02 49.85072 9.21444 6849 ft 285 kts 24°
2026-05-05 21:03 49.86864 9.22509 6495 ft 267 kts 11°
2026-05-05 21:03 49.88664 9.22636 6349 ft 256 kts 350°
2026-05-05 21:03 49.90317 9.21773 6094 ft 249 kts 328°
2026-05-05 21:03 49.91621 9.20078 5845 ft 243 kts 306°
2026-05-05 21:04 49.92435 9.17853 5586 ft 240 kts 289°
2026-05-05 21:04 49.93061 9.15454 5329 ft 240 kts 290°
2026-05-05 21:04 49.93696 9.13066 5100 ft 238 kts 290°
2026-05-05 21:04 49.94319 9.10721 5006 ft 229 kts 290°
2026-05-05 21:05 49.94905 9.08522 5027 ft 211 kts 290°
2026-05-05 21:05 49.95445 9.06496 5015 ft 198 kts 290°
2026-05-05 21:05 49.95969 9.04532 5015 ft 196 kts 292°
2026-05-05 21:05 49.96649 9.02688 5018 ft 198 kts 304°
2026-05-05 21:06 49.97561 9.01083 4994 ft 200 kts 315°
2026-05-05 21:06 49.98660 8.99748 4754 ft 199 kts 322°
2026-05-05 21:06 49.99774 8.98486 4515 ft 197 kts 322°
2026-05-05 21:06 50.00860 8.97246 4298 ft 196 kts 321°
2026-05-05 21:07 50.01832 8.95786 4084 ft 194 kts 306°
2026-05-05 21:07 50.02634 8.94105 3883 ft 193 kts 305°
2026-05-05 21:07 50.03433 8.92428 3695 ft 193 kts 304°
2026-05-05 21:07 50.04234 8.90750 3484 ft 193 kts 304°
2026-05-05 21:08 50.05033 8.89077 3272 ft 192 kts 305°
2026-05-05 21:08 50.05772 8.87356 3095 ft 191 kts 295°
2026-05-05 21:08 50.06134 8.85389 2955 ft 190 kts 275°
2026-05-05 21:08 50.06233 8.83342 2819 ft 189 kts 274°
2026-05-05 21:09 50.06338 8.81300 2684 ft 189 kts 273°
2026-05-05 21:09 50.06443 8.79260 2541 ft 189 kts 274°
2026-05-05 21:09 50.06547 8.77251 2418 ft 189 kts 274°
2026-05-05 21:09 50.06651 8.75216 2281 ft 188 kts 274°
2026-05-05 21:10 50.06755 8.73186 2146 ft 188 kts 274°
2026-05-05 21:10 50.06842 8.71203 2016 ft 175 kts 268°
2026-05-05 21:10 50.06572 8.69458 1873 ft 161 kts 249°
2026-05-05 21:10 50.06321 8.68397 1724 ft 156 kts 249°
2026-05-05 21:11 50.05953 8.66840 1488 ft 149 kts 249°
2026-05-05 21:11 50.05601 8.65352 1302 ft 145 kts 249°
2026-05-05 21:11 50.05253 8.63889 1104 ft 144 kts 250°
2026-05-05 21:11 50.04908 8.62437 923 ft 143 kts 249°
2026-05-05 21:12 50.04443 8.60517 670 ft 143 kts 250°
2026-05-05 21:12 50.04102 8.59064 482 ft 143 kts 250°
2026-05-05 21:12 50.03762 8.57645 365 ft 131 kts 251°
2026-05-05 21:12 50.03587 8.56901 359 ft 83 kts 249°
2026-05-05 21:13 50.03466 8.56395 358 ft 37 kts 251°
2026-05-05 21:13 50.03441 8.56031 348 ft 27 kts 277°
2026-05-05 21:13 50.03459 8.55850 345 ft 15 kts 279°
2026-05-05 21:13 50.03485 8.55623 345 ft 17 kts 279°
2026-05-05 21:14 50.03482 8.55434 345 ft 18 kts 253°
2026-05-05 21:14 50.03451 8.55302 344 ft 20 kts 250°
2026-05-05 21:14 50.03401 8.55091 349 ft 22 kts 250°
2026-05-05 21:14 50.03344 8.54854 337 ft 25 kts 249°
2026-05-05 21:15 50.03283 8.54600 335 ft 18 kts 249°
2026-05-05 21:15 50.03335 8.54468 338 ft 17 kts 338°
2026-05-05 21:15 50.03443 8.54404 348 ft 16 kts 339°
2026-05-05 21:15 50.03553 8.54342 349 ft 18 kts 340°
2026-05-05 21:16 50.03601 8.54314 347 ft 0 kts 340°
2026-05-05 21:16 50.03603 8.54313 346 ft 1 kts 340°
2026-05-05 21:16 50.03641 8.54310 345 ft 8 kts 23°
2026-05-05 21:17 50.03674 8.54387 344 ft 10 kts 68°
2026-05-05 21:17 50.03700 8.54490 349 ft 10 kts 69°
2026-05-05 21:17 50.03726 8.54600 353 ft 11 kts 70°
2026-05-05 21:17 50.03754 8.54717 354 ft 12 kts 69°
2026-05-05 21:18 50.03786 8.54848 351 ft 15 kts 70°
2026-05-05 21:18 50.03829 8.55029 356 ft 19 kts 69°
2026-05-05 21:18 50.03876 8.55225 353 ft 20 kts 69°
2026-05-05 21:18 50.03926 8.55435 353 ft 21 kts 70°
2026-05-05 21:19 50.03980 8.55662 351 ft 23 kts 70°
2026-05-05 21:19 50.04037 8.55902 352 ft 24 kts 70°
2026-05-05 21:19 50.04096 8.56147 355 ft 25 kts 69°
2026-05-05 21:19 50.04169 8.56278 354 ft 15 kts 352°
2026-05-05 21:20 50.04269 8.56220 357 ft 16 kts 326°
2026-05-05 21:20 50.04316 8.56074 363 ft 16 kts 324°
2026-05-05 21:20 50.04413 8.55992 360 ft 17 kts 311°
2026-05-05 21:20 50.04517 8.55952 362 ft 18 kts 17°
2026-05-05 21:21 50.04587 8.56101 362 ft 19 kts 69°
2026-05-05 21:21 50.04635 8.56300 358 ft 20 kts 69°
2026-05-05 21:21 50.04685 8.56505 359 ft 15 kts 64°
2026-05-05 21:21 50.04736 8.56617 356 ft 8 kts 53°
2026-05-05 21:22 50.04783 8.56674 358 ft 10 kts 24°
2026-05-05 21:22 50.04801 8.56713 363 ft 4 kts 97°
2026-05-05 21:22 50.04790 8.56754 357 ft 2 kts 113°
2026-05-05 21:22 50.04788 8.56762 360 ft 0 kts 114°